{"data":{"norad_id":61690,"epoch":"2026-05-25T01:04:56.944992Z","epoch_age_seconds":77944,"freshness":"FRESH","line1":"1 61690U 24195D   26145.04510353  .00004137  00000+0  38980-4 0  9998","line2":"2 61690  53.1575  10.0355 0000913  50.8755 309.2344 15.69716188 91026","mean_motion":15.69716188,"eccentricity":9.13e-5,"inclination_deg":53.1575,"raan_deg":10.0355,"arg_perigee_deg":50.8755,"mean_anomaly_deg":309.2344,"bstar":3.898e-5,"rev_number":9102,"period_min":91.736328580183,"perigee_km":359.09387744689,"apogee_km":360.3242081343,"semimajor_km":6737.8460427906,"source":"CELESTRAK","updated_at":"2026-05-25T13:38:19.439864Z"}}